Wind_Speed
16 18 20 23 20 16 17 18 20 20 17 17 21 23 21 19 20 22 22 22 20 19 18 17 16 14 14 16 13 12 14 15 13 12 13 13 12 13 15 13 12 12 11 11 13 12 13 13 12 13 15 15 16 15 15 17 18 17 14 14 21 25 22 20 16 13 15 18 19 18 16 15 16 16 15 14 14 15 14 15 16 15 15 13 13
22 23 23 23 20 17 18 20 21 18 16 18 21 22 22 21 21 22 22 21 19 18 18 17 14 11 13 14 12 12 13 14 13 12 11 12 11 11 13 13 13 14 12 11 14 14 14 14 13 15 15 14 15 15 15 14 13 12 9 10 20 25 21 21 19 16 16 19 21 20 18 17 16 17 17 15 15 16 15 15 16 16 15 15 14
23 23 21 21 19 19 21 22 21 18 17 20 20 20 22 22 21 22 21 20 19 18 17 16 13 12 13 13 12 12 12 12 13 11 10 11 9 7 12 15 15 14 12 13 15 15 15 15 15 15 13 13 14 14 12 10 10 11 10 11 14 17 20 21 20 18 19 20 22 23 21 18 16 16 18 16 14 15 15 14 15 17 17 17 16
22 22 19 18 19 22 23 22 22 20 20 21 21 21 22 22 21 20 20 20 18 17 17 14 13 14 14 13 13 12 12 12 11 11 12 10 7 10 15 17 15 12 12 14 15 15 16 16 16 14 12 13 12 9 6 4 6 11 12 11 12 14 20 21 19 20 21 21 23 24 22 20 18 17 19 20 18 17 16 14 15 17 18 18 18
19 20 19 19 23 25 25 25 24 22 22 22 21 22 23 22 21 18 19 20 17 17 17 14 14 14 14 13 12 12 13 11 10 12 13 9 7 12 16 15 13 13 12 13 14 15 16 16 16 13 12 13 9 5 3 3 4 9 12 11 12 13 16 16 16 18 20 21 23 23 21 21 21 21 23 23 22 21 19 18 18 18 19 20 20
17 18 21 24 26 26 27 29 26 24 24 24 23 23 23 22 21 19 19 19 17 18 18 15 14 13 13 13 11 11 14 12 10 12 12 8 6 10 11 9 11 14 14 14 15 15 15 16 15 12 11 10 7 4 5 7 9 8 7 8 10 11 12 11 13 17 18 19 20 21 23 21 20 22 26 26 25 25 24 23 22 22 22 23 23
15 18 23 26 25 24 28 32 29 24 24 25 26 25 22 21 21 19 19 18 17 19 18 15 15 13 13 14 12 13 15 12 11 14 12 7 7 9 7 5 10 16 16 15 16 15 14 14 13 11 10 8 7 7 8 9 11 11 8 8 10 9 9 9 11 15 17 18 17 18 22 22 19 20 23 27 27 25 25 26 26 26 26 26 26
13 18 21 22 22 25 30 32 30 25 23 25 28 26 23 21 20 20 19 18 18 19 18 16 16 14 13 15 14 14 14 11 12 15 13 9 9 8 7 7 13 18 17 15 16 15 14 13 11 10 9 8 7 7 8 8 10 12 11 10 10 9 7 6 6 9 13 16 13 13 16 19 20 17 17 24 27 24 25 26 26 26 27 27 28
14 18 18 19 21 26 30 29 26 24 25 27 28 26 24 21 20 20 20 18 17 18 16 14 15 15 15 17 16 15 14 13 14 15 13 11 10 8 8 10 13 16 17 16 16 16 16 13 11 10 9 8 7 6 6 6 7 10 10 8 8 9 7 6 5 4 6 9 9 10 13 15 17 15 12 18 24 23 24 25 26 27 27 27 29
14 16 17 20 21 24 26 25 23 22 24 28 28 24 22 21 19 20 20 18 17 18 16 14 16 18 18 19 18 17 16 15 15 14 13 12 11 10 10 10 11 14 16 16 15 17 17 14 12 11 10 9 8 6 5 5 4 7 8 7 6 6 6 6 7 7 5 3 2 3 7 9 12 14 13 15 17 18 18 20 23 25 24 23 24
11 15 14 16 19 22 23 22 22 22 22 25 26 24 22 22 21 20 19 19 19 19 18 18 19 21 21 20 20 19 18 17 16 15 14 13 12 11 11 10 10 12 12 13 14 16 15 12 11 9 8 8 8 7 6 5 4 4 5 6 5 4 3 3 3 4 4 4 4 2 2 1 3 8 11 12 12 13 13 13 15 15 15 15 15
8 12 12 14 20 23 22 22 23 23 20 18 20 24 25 25 24 22 21 22 22 21 21 21 22 22 22 22 21 21 19 17 16 16 15 13 12 12 12 11 11 12 12 12 12 14 13 12 11 9 8 7 6 6 5 4 3 3 3 3 3 3 2 2 2 2 3 3 4 4 4 4 3 4 5 6 7 9 10 11 11 10 10 10 10
18 15 16 17 21 22 21 21 21 21 19 16 19 25 27 26 25 24 24 24 24 24 24 24 23 22 22 22 21 21 19 16 14 15 15 15 14 14 15 14 14 14 14 13 14 15 15 15 15 13 10 9 8 6 5 3 2 2 2 2 3 3 4 5 5 5 6 7 8 9 9 9 10 10 8 7 9 10 10 11 11 10 10 10 10
25 23 20 18 19 21 20 18 17 19 19 19 23 27 28 28 28 27 27 27 26 27 26 25 24 22 21 21 20 19 17 14 12 12 12 13 13 14 15 16 16 16 15 15 16 16 14 13 13 11 8 7 8 7 5 4 4 3 3 3 4 5 6 6 7 7 8 9 10 12 12 12 14 15 14 13 14 16 16 15 13 13 14 14 13
29 27 25 22 20 20 19 19 20 22 22 24 26 28 29 30 29 28 28 28 28 27 25 24 23 21 19 18 17 17 16 13 11 10 10 10 10 10 11 13 14 15 14 14 15 15 13 10 9 7 5 5 5 5 2 2 2 4 5 5 6 6 6 7 7 8 9 10 11 13 14 15 15 16 17 16 16 18 19 18 16 15 16 16 16
31 30 28 25 23 21 21 22 23 24 24 26 28 29 29 29 29 28 29 28 27 26 24 22 22 20 19 17 16 16 15 12 11 11 10 9 8 7 7 9 10 10 11 11 11 11 10 8 5 5 4 4 4 3 2 2 2 3 4 5 6 6 6 6 7 8 9 10 11 12 13 15 15 16 17 16 17 19 19 16 15 17 17 17 18
30 29 28 26 24 23 23 23 24 24 25 27 29 29 29 28 27 28 30 29 26 25 24 22 21 20 18 16 15 15 14 12 11 11 11 10 10 10 9 8 6 5 8 10 9 8 9 7 4 5 6 4 1 1 2 3 3 4 4 5 5 6 6 7 7 8 8 8 9 9 10 12 12 13 14 15 17 21 20 17 18 20 19 16 17
29 28 26 24 24 24 24 24 24 25 25 26 28 29 28 26 24 23 26 27 24 22 22 21 20 18 17 15 14 13 13 11 10 10 10 9 10 12 12 12 12 11 11 12 11 10 10 9 7 6 5 3 1 2 3 4 4 4 5 6 7 7 7 8 9 10 10 9 9 10 11 11 12 12 13 13 16 19 20 20 20 20 19 17 18
26 26 25 24 24 24 24 24 25 26 26 25 26 27 26 25 22 19 20 20 19 18 17 16 16 16 15 14 13 12 12 11 10 9 9 9 10 12 14 16 18 17 15 14 13 12 11 9 8 6 4 3 1 3 4 5 6 7 8 9 10 11 11 12 13 14 15 15 15 16 16 16 16 16 16 16 17 19 20 21 20 19 19 20 20
24 25 25 25 25 24 24 24 24 24 25 25 25 24 24 23 21 20 18 17 16 14 13 13 15 15 14 14 13 13 12 11 11 9 8 8 9 9 10 13 15 15 14 13 12 10 8 7 6 5 3 2 3 5 7 8 9 10 11 11 12 13 14 15 15 16 17 18 18 19 19 19 19 19 18 18 18 19 21 21 20 19 18 20 21
24 24 25 26 26 25 25 24 23 23 22 22 22 21 21 20 19 18 17 16 15 15 14 14 15 16 15 14 15 15 14 13 13 11 10 9 8 6 6 8 9 10 11 12 11 9 7 6 5 4 3 4 5 7 9 10 12 13 14 14 14 14 14 15 15 14 14 15 16 17 16 17 17 17 17 17 17 18 19 19 19 18 17 17 19
25 24 24 25 25 24 24 24 24 23 22 22 23 23 22 20 19 17 16 15 15 16 15 15 17 19 19 18 18 19 18 17 17 16 14 13 11 9 8 8 7 7 8 10 10 8 6 4 4 4 4 5 7 9 11 13 14 15 15 14 13 12 11 11 11 11 12 12 12 12 13 15 16 16 16 16 16 16 17 18 18 17 16 16 17
26 25 25 24 24 22 21 21 21 22 21 20 22 22 21 20 18 17 16 16 17 17 16 17 19 20 20 20 21 20 19 18 18 17 17 15 14 14 12 11 10 8 8 9 8 6 4 3 4 5 6 7 8 9 10 10 10 10 10 9 9 9 8 8 9 11 11 10 10 12 13 15 16 17 18 20 19 18 17 15 13 13 13 12 11
26 27 26 24 23 22 22 22 22 22 21 19 17 17 16 15 14 13 12 13 13 14 14 16 17 19 21 22 21 19 17 15 16 16 15 13 13 13 12 12 10 9 8 8 7 6 6 6 6 5 5 5 5 4 4 5 6 7 8 8 8 9 9 10 10 11 12 12 12 12 12 12 14 16 17 17 17 15 13 9 8 9 9 9 7
25 26 26 25 23 22 22 22 23 23 22 20 18 17 15 15 16 15 13 12 10 10 11 12 13 16 19 21 19 17 14 13 14 14 13 12 11 10 10 9 9 8 8 9 9 9 9 8 6 5 5 6 7 7 8 8 9 10 11 11 12 12 12 13 12 12 12 12 10 9 9 11 13 15 14 13 12 9 7 6 6 7 7 7 7
24 24 24 24 25 24 22 20 20 20 19 18 18 17 16 17 19 20 19 18 18 18 18 18 17 18 19 19 17 15 13 12 12 12 12 12 11 10 9 9 8 8 9 10 10 10 10 9 10 10 10 10 10 10 10 10 11 13 13 13 13 14 13 13 12 10 8 8 8 9 10 12 13 13 13 13 11 8 7 7 6 6 6 5 4
23 23 21 20 21 24 23 21 19 19 19 18 18 17 16 16 18 19 19 19 19 20 22 23 23 21 20 17 15 14 12 11 11 11 11 11 11 10 9 8 8 8 9 10 10 11 12 11 10 10 10 10 10 11 12 13 15 17 17 16 15 15 14 12 10 8 8 8 9 10 11 12 13 14 14 11 8 7 8 8 8 6 4 3 2
21 22 22 19 16 17 20 22 21 21 22 23 22 22 20 18 18 19 18 17 16 16 17 20 20 19 17 14 13 13 12 11 11 11 11 11 11 10 9 8 7 8 10 11 11 11 11 11 11 11 12 13 13 14 15 16 17 18 18 18 17 16 14 12 10 10 10 10 11 11 12 13 14 15 12 7 5 5 5 7 7 5 4 3 2
17 19 20 20 16 12 13 17 20 21 22 24 24 24 22 20 20 20 18 17 14 12 12 14 15 12 11 11 12 12 13 13 13 12 12 12 11 11 11 11 10 9 10 11 12 13 15 17 19 20 19 19 18 18 17 16 16 18 18 18 17 17 16 13 12 11 10 10 11 12 14 14 14 13 9 5 3 3 4 4 4 4 4 4 3
14 15 15 16 15 12 9 9 12 16 19 21 22 22 22 21 21 22 21 19 17 14 13 14 13 10 10 11 12 13 13 13 12 12 12 12 12 13 14 14 13 13 13 13 15 18 21 23 24 24 23 22 22 21 20 18 17 17 18 18 18 17 16 15 13 12 11 12 13 13 14 15 13 11 7 3 0 1 3 3 3 3 3 3 3
10 12 12 11 11 12 11 7 6 10 15 19 20 20 21 20 20 21 20 19 19 18 16 15 14 13 12 13 13 13 13 12 12 12 13 13 14 15 16 16 16 16 16 16 18 20 21 22 23 23 22 22 22 22 21 20 18 17 16 17 18 17 15 15 15 14 14 14 14 14 14 13 11 9 6 4 3 3 2 2 2 2 3 5 5
9 10 14 13 10 10 14 13 8 7 10 14 17 18 19 19 19 19 19 19 20 19 18 18 16 15 15 15 14 14 14 13 13 12 12 13 14 15 16 16 15 15 14 14 17 20 20 21 22 22 22 22 21 21 20 20 18 17 16 17 18 17 16 15 14 14 15 15 14 13 13 11 9 8 6 5 5 5 5 4 4 4 4 4 4
13 14 17 18 14 12 15 16 14 9 7 8 10 11 14 15 17 18 18 19 21 21 21 21 20 19 18 17 17 17 16 15 14 12 11 11 12 13 14 15 14 14 13 13 16 19 19 19 20 20 20 20 19 18 19 19 17 17 17 17 17 16 14 13 13 14 15 14 13 12 11 10 9 8 7 6 6 6 6 6 6 6 5 5 6
15 16 16 17 16 15 14 14 13 13 11 7 5 6 7 11 15 19 19 19 20 21 22 22 22 22 21 20 20 19 17 15 14 13 12 12 12 11 12 14 14 14 15 16 17 17 17 18 19 18 18 18 18 18 18 17 16 16 16 16 17 16 12 11 12 14 13 13 13 12 11 11 11 10 9 9 8 8 8 8 8 8 8 9 9
12 12 11 11 11 11 13 13 10 9 11 12 9 4 3 8 13 16 18 19 20 19 20 20 20 21 21 21 20 18 17 16 15 13 12 12 10 8 10 13 15 16 17 17 17 16 16 17 17 15 15 15 16 16 16 15 16 16 16 16 16 13 10 10 11 12 12 13 13 12 12 12 12 12 11 11 10 10 10 9 9 9 10 11 11
7 9 9 7 5 5 8 10 8 8 11 12 12 11 7 9 11 12 14 18 19 18 17 17 17 18 19 19 18 17 16 15 15 14 13 12 10 9 12 17 17 16 16 16 15 14 14 14 14 13 13 13 13 13 13 13 13 13 12 12 11 11 11 10 10 11 12 12 12 11 11 11 11 10 10 9 9 9 10 9 9 10 11 11 11
5 10 10 6 3 4 6 6 6 10 12 10 10 12 12 11 10 10 14 17 17 16 15 14 13 13 13 13 15 16 15 13 13 14 14 14 13 13 15 16 15 14 15 14 12 12 12 11 10 11 12 13 12 11 10 9 9 8 8 9 10 11 11 11 11 11 11 11 10 9 9 10 9 8 8 9 9 9 10 10 11 12 11 9 8
4 10 10 6 4 5 7 6 8 11 11 8 10 13 13 12 13 14 16 17 16 16 15 13 13 12 12 12 13 13 12 12 13 14 15 15 15 16 15 14 12 12 13 12 11 11 10 9 8 10 13 13 12 11 10 10 9 9 9 9 10 10 10 9 9 9 9 9 9 9 8 8 7 7 9 9 9 9 10 12 12 12 9 5 5
5 6 7 5 3 3 5 7 9 11 10 9 10 13 13 12 15 20 22 19 16 15 13 13 14 14 14 15 13 10 11 13 14 15 14 14 13 13 14 13 12 11 11 10 10 9 9 8 9 12 14 13 12 12 12 11 10 9 9 9 10 10 10 9 9 9 9 10 9 9 8 8 8 9 11 12 10 9 9 8 8 8 8 6 5
6 3 4 4 3 2 3 5 7 7 9 10 10 12 14 12 11 17 20 19 17 15 14 14 15 14 13 13 10 8 11 14 13 12 13 13 12 11 13 13 12 11 11 10 9 9 9 9 10 12 14 14 13 12 11 9 9 9 10 11 12 12 12 11 11 10 10 9 9 9 9 9 8 10 14 13 10 8 7 5 4 5 7 7 7
6 2 0 2 3 3 2 2 3 5 7 8 7 9 13 12 9 12 16 16 16 16 15 14 12 11 10 9 8 9 11 12 11 12 13 13 13 12 13 14 13 12 11 10 8 8 8 8 9 11 12 12 11 11 11 10 10 9 9 11 11 12 11 11 10 10 9 9 9 10 10 10 10 12 13 11 10 11 10 8 7 7 9 10 10
6 5 4 3 2 2 2 2 3 6 8 7 5 5 9 10 8 10 13 13 12 13 12 10 10 9 8 7 8 11 12 11 10 11 12 12 11 11 11 11 12 12 11 8 6 6 7 8 9 9 10 10 10 10 11 12 12 11 11 11 11 11 11 10 10 9 9 9 8 9 9 9 10 11 12 12 11 12 12 11 11 10 11 11 11
5 6 7 7 6 3 5 8 9 8 6 6 6 4 3 5 5 6 10 12 12 11 9 7 7 9 10 9 9 11 11 10 9 9 9 8 9 8 7 7 7 8 8 7 7 8 11 12 10 9 9 9 9 9 10 11 11 10 10 10 10 10 10 9 8 9 9 9 8 7 8 8 8 9 11 12 11 11 11 11 10 10 10 10 11
6 6 8 11 7 4 11 12 10 8 6 5 4 4 3 3 3 4 7 8 8 6 5 4 5 7 10 10 10 10 10 10 9 8 8 7 8 8 7 7 7 8 7 6 6 9 11 12 11 10 10 9 8 8 8 8 7 7 7 8 8 9 9 8 9 10 10 9 8 7 7 7 8 9 10 10 10 10 10 10 9 9 9 10 10
8 7 8 11 6 7 14 10 6 6 5 4 4 4 2 2 2 4 6 6 4 3 3 3 3 4 8 10 11 11 10 9 9 9 8 8 8 7 7 8 9 9 8 7 6 7 9 10 10 11 11 10 9 7 6 6 6 6 6 6 6 8 8 9 9 8 8 9 9 8 8 7 7 8 9 9 8 9 10 10 8 7 8 8 8
7 7 8 11 8 5 13 9 6 7 7 6 6 3 2 2 2 5 6 7 6 4 3 4 4 4 7 10 11 11 10 9 9 9 8 8 8 7 6 7 8 8 7 7 7 8 9 11 11 11 11 10 8 6 6 6 6 5 5 5 5 6 7 7 7 6 7 8 9 9 9 8 8 8 9 9 9 9 10 10 10 8 7 7 7
7 8 9 12 10 3 12 12 9 9 8 7 6 4 1 2 4 7 6 6 5 6 7 7 6 6 8 11 10 9 9 10 11 9 7 8 9 8 6 6 6 6 6 7 8 9 10 11 10 10 9 7 5 4 4 4 4 3 3 3 3 3 4 5 5 6 7 7 7 7 7 7 8 8 8 9 9 9 8 8 9 9 8 9 10
7 8 9 12 12 4 10 15 13 10 9 8 7 7 6 4 4 6 7 6 7 10 10 9 8 6 8 9 9 8 10 13 13 10 8 9 10 10 8 6 5 6 7 8 8 7 8 7 6 6 6 4 3 2 3 3 3 3 3 2 1 2 3 4 4 5 5 6 5 5 6 6 6 7 8 8 9 9 8 7 8 8 7 9 11
7 8 9 11 12 9 5 13 15 12 9 9 9 10 9 7 6 7 6 5 6 8 9 8 8 9 9 8 8 9 12 14 14 11 9 8 9 10 9 7 5 5 6 8 8 6 5 5 4 4 5 4 3 3 4 4 4 4 4 3 3 3 3 3 3 3 3 4 4 5 6 6 6 7 8 8 8 9 9 7 6 6 7 8 10
7 7 8 11 12 13 10 8 15 15 12 10 11 12 13 11 10 10 10 8 7 8 7 6 6 9 11 11 10 10 13 15 13 11 9 7 7 8 9 8 6 5 5 6 6 5 5 5 6 5 6 6 6 6 6 6 6 6 5 5 4 3 2 2 3 3 3 4 6 7 8 8 8 8 8 7 7 8 8 7 5 5 6 7 8
6 6 8 11 11 10 13 9 9 16 18 15 11 12 14 15 13 13 14 12 10 9 8 5 4 3 5 8 9 10 14 16 13 10 9 7 5 6 8 8 7 6 6 6 5 4 3 4 5 5 5 5 6 6 5 5 5 4 3 3 3 2 2 2 3 3 5 7 8 8 9 9 8 7 6 5 5 6 7 6 6 5 5 6 7
Wind_Direction
217 216 218 215 204 196 199 195 189 189 192 188 179 176 175 169 161 158 156 154 153 149 147 147 147 142 145 153 157 156 153 151 151 150 151 156 157 157 159 160 157 158 163 170 173 174 171 171 172 168 168 171 170 169 169 172 182 192 207 212 194 184 177 166 152 152 175 184 180 175 179 179 181 189 187 184 190 190 188 191 193 191 191 193 195
222 219 217 210 197 191 198 193 187 191 193 183 173 171 172 167 161 157 152 149 150 149 149 149 146 139 144 155 156 152 153 150 150 152 156 166 169 168 172 169 159 158 160 165 172 171 167 168 168 168 171 173 170 168 169 175 188 192 184 172 176 180 182 172 159 148 157 174 177 174 178 182 181 187 192 193 196 196 194 196 203 208 208 208 210
227 222 216 206 194 192 196 191 186 190 189 180 175 173 169 162 157 153 147 146 150 153 153 148 142 141 146 152 153 153 152 147 150 156 158 164 170 173 176 170 159 156 158 161 166 166 164 165 165 167 171 172 170 171 176 184 188 177 151 129 146 172 181 172 162 155 154 166 177 176 177 184 189 193 198 203 204 202 203 201 202 212 219 222 225
227 220 212 203 198 194 191 187 186 188 185 181 177 172 167 161 155 151 147 149 152 154 152 147 145 148 148 148 153 155 152 149 150 151 152 153 136 129 144 151 148 147 154 159 162 163 164 163 163 166 172 174 176 178 179 179 176 175 164 136 126 152 173 173 167 163 160 167 179 182 180 186 198 204 203 205 205 207 213 211 206 213 221 227 234
231 218 207 204 203 193 182 182 185 185 184 182 176 169 166 162 156 150 149 153 157 155 152 150 152 152 148 148 155 157 153 155 150 143 151 155 123 124 136 140 141 146 153 156 157 160 162 160 160 166 174 180 185 184 157 105 120 157 165 152 134 142 159 169 174 172 169 171 179 186 188 189 197 205 206 205 203 204 214 219 219 222 226 231 237
232 223 213 206 200 189 179 178 180 183 184 179 172 166 162 157 153 150 153 158 159 152 150 154 153 149 147 149 156 155 152 157 150 144 155 161 129 133 140 139 146 149 147 146 147 149 151 154 159 166 174 182 182 155 126 92 81 102 142 160 155 148 143 151 175 184 183 182 182 186 193 195 195 201 208 209 205 203 210 220 226 229 230 232 236
219 214 208 202 195 185 180 178 177 183 185 175 170 168 161 156 154 154 158 161 158 152 151 153 151 150 153 154 158 159 157 162 156 149 156 161 147 150 149 144 156 154 146 140 143 145 146 150 153 152 159 168 155 128 116 99 82 84 112 145 153 151 134 132 164 183 189 193 190 189 197 203 201 201 209 214 213 209 209 213 222 228 231 233 235
210 206 198 193 190 183 179 177 175 182 182 169 166 167 163 159 158 160 162 160 156 152 148 147 150 155 157 153 153 156 156 159 154 151 154 152 154 164 153 133 144 151 150 144 146 149 149 152 153 151 156 156 142 126 114 105 96 95 108 123 127 130 129 126 152 177 191 197 194 188 196 207 211 211 210 207 209 215 215 213 219 227 230 234 237
207 209 195 187 187 180 176 172 170 179 179 163 160 163 162 160 159 160 161 154 148 147 145 147 151 150 146 144 145 148 146 141 141 146 151 149 152 158 148 132 132 141 145 145 153 158 154 157 163 164 165 157 145 136 116 105 106 110 118 125 123 120 114 102 90 105 177 194 194 191 196 206 215 220 214 203 208 219 223 221 227 234 234 234 238
197 197 191 189 183 170 166 164 164 176 173 157 154 159 160 159 154 151 155 152 148 150 150 145 141 138 136 137 137 135 131 126 127 136 144 148 151 148 143 137 128 129 130 128 138 148 146 146 151 152 155 154 152 156 145 129 123 123 132 143 142 129 112 97 78 68 84 104 102 195 204 212 221 227 230 227 226 228 226 225 233 240 240 235 237
182 182 183 184 171 158 157 158 158 165 162 152 153 157 159 160 154 149 152 151 150 152 147 137 133 133 132 131 128 125 122 117 116 123 132 144 157 157 150 146 138 134 131 125 132 142 139 137 141 143 144 143 147 159 166 171 169 149 143 147 152 153 140 118 81 60 60 58 44 24 7 332 230 230 239 245 245 243 243 245 247 249 246 239 238
115 150 138 142 157 161 158 151 149 151 155 157 155 152 152 153 149 144 143 143 142 141 137 131 130 130 128 126 122 117 115 113 111 114 117 127 142 144 139 140 141 143 141 132 135 145 143 134 130 129 134 137 138 149 167 191 194 175 168 172 185 204 219 252 291 311 314 314 308 307 319 324 311 287 273 269 265 261 263 268 266 263 259 251 249
66 87 94 116 147 162 159 150 145 143 147 152 147 143 142 140 139 138 137 137 136 131 128 127 125 125 125 124 120 116 114 113 112 112 111 115 122 120 112 106 106 113 117 114 120 134 136 126 116 107 113 132 139 139 151 169 180 191 209 221 242 260 268 275 280 281 283 291 294 294 297 301 299 296 296 295 289 283 281 280 276 271 268 266 263
53 66 75 91 124 146 151 145 137 136 140 140 134 132 131 129 131 134 133 132 130 126 124 123 121 120 121 120 118 116 114 113 113 114 112 110 113 112 105 94 85 86 91 94 103 116 122 122 118 103 92 115 132 136 149 167 181 209 234 247 257 265 274 280 283 284 285 286 287 286 288 293 293 288 286 285 284 282 279 276 275 273 273 275 276
44 57 64 67 88 117 131 130 129 134 138 135 126 121 121 123 126 129 128 126 124 122 121 120 118 117 116 118 118 114 111 114 118 119 117 114 113 110 107 97 84 77 81 85 90 98 103 107 117 114 80 72 92 104 119 175 214 231 244 254 259 263 271 275 276 278 279 280 281 282 284 288 289 287 285 284 282 280 275 270 270 271 274 275 276
40 49 56 57 67 89 107 118 125 128 128 125 119 115 116 118 121 124 124 122 119 119 117 116 115 115 114 118 119 112 107 111 119 121 122 123 123 120 115 107 90 75 76 85 88 95 98 95 97 107 91 64 58 59 42 354 299 268 256 258 265 271 274 273 272 271 270 271 275 277 279 281 282 285 287 285 278 270 264 264 270 272 275 278 278
39 45 52 55 63 75 89 101 111 115 115 113 113 113 113 112 113 116 117 115 114 114 112 111 111 113 114 115 117 115 109 106 112 119 122 125 126 123 119 118 119 96 83 90 97 100 101 99 99 107 111 112 108 328 319 306 291 283 273 270 276 281 279 275 274 274 276 281 284 287 288 287 287 289 288 285 280 274 270 275 281 280 279 281 279
38 42 48 54 63 73 80 85 92 99 99 100 106 112 113 112 112 111 109 108 108 109 110 110 107 107 108 107 109 112 107 102 108 113 114 119 123 124 123 124 130 129 113 102 103 103 103 107 110 115 120 118 66 329 318 312 311 317 317 312 311 307 298 293 290 287 286 289 291 294 298 300 301 302 300 298 297 294 290 288 286 283 280 274 272
41 44 47 53 61 72 81 85 86 89 91 92 99 107 110 113 117 118 114 113 112 112 113 112 105 100 101 99 99 102 99 95 97 100 102 104 109 117 125 124 122 121 116 109 103 102 104 106 107 108 110 96 33 331 325 325 324 326 328 325 321 317 311 309 308 305 304 303 303 302 302 304 305 305 304 304 304 304 301 296 291 285 277 273 271
46 49 52 56 59 65 77 85 86 86 89 90 94 101 107 112 115 117 118 121 123 120 120 120 110 99 95 94 91 87 84 81 78 79 83 88 92 101 113 116 112 109 107 104 99 96 96 95 91 86 72 38 331 311 313 315 316 317 319 318 317 314 311 311 311 312 312 312 312 311 310 308 307 306 306 304 305 306 304 299 292 283 275 273 271
52 54 54 57 59 61 67 75 79 80 83 88 92 95 100 104 107 110 113 118 119 114 112 113 108 97 90 88 84 78 74 73 71 69 68 70 75 82 93 98 96 96 97 95 93 94 93 86 76 62 32 350 322 309 308 310 313 315 315 313 311 309 308 311 313 316 318 317 317 319 319 319 319 320 318 314 310 309 306 301 295 285 274 270 269
56 57 57 56 59 62 64 67 72 74 77 83 87 89 91 94 96 99 104 110 112 112 112 111 106 99 91 85 81 78 75 74 73 73 72 73 73 74 79 80 79 92 101 95 89 91 89 69 46 29 357 326 312 306 306 309 311 311 309 308 307 306 307 311 317 321 324 327 332 339 345 347 349 351 348 340 331 324 316 306 294 278 263 258 262
56 57 57 54 54 58 63 66 68 70 71 76 81 84 86 90 93 99 105 108 110 115 120 117 111 105 98 90 85 83 81 79 79 78 78 81 83 82 82 80 78 86 95 90 81 77 62 21 2 350 327 314 311 311 312 315 315 316 317 316 317 319 319 320 324 328 335 345 353 357 2 5 4 2 358 352 347 343 332 311 285 262 250 252 260
55 54 53 52 53 58 64 66 67 69 72 77 82 82 82 86 92 98 105 110 115 122 124 121 117 113 108 101 93 89 86 83 80 76 72 73 79 83 84 83 81 79 80 77 65 45 26 8 352 339 329 329 340 354 1 359 354 350 347 342 340 338 335 333 331 335 345 353 353 355 5 13 7 360 356 353 349 342 329 301 258 240 241 248 263
51 52 51 50 51 56 62 65 66 67 70 76 79 79 79 83 85 87 90 96 106 115 117 123 132 129 119 108 97 92 90 81 70 64 61 58 59 61 65 70 69 63 57 52 43 30 21 18 22 37 55 58 60 60 52 36 21 10 3 359 358 354 348 341 337 338 348 356 2 11 21 17 7 0 358 356 348 331 306 276 248 242 249 261 280
45 49 52 51 48 49 54 58 60 61 62 64 66 67 71 77 80 82 85 87 90 91 88 92 107 119 118 111 102 96 90 79 66 59 57 55 50 47 49 49 45 41 39 38 37 35 36 47 64 73 69 61 52 44 38 34 34 33 31 27 22 15 6 360 356 359 11 23 31 28 16 6 360 356 352 348 340 319 294 280 273 270 279 296 308
38 42 48 52 50 50 54 57 59 61 62 63 65 65 66 71 74 74 75 77 83 86 84 83 91 102 107 105 100 94 86 75 66 59 53 50 44 38 38 39 37 40 46 49 53 56 58 63 65 59 51 50 50 47 48 51 53 51 47 42 36 28 25 28 37 46 44 33 24 14 4 358 355 350 345 341 329 308 288 276 270 270 282 301 306
37 37 40 47 53 57 61 64 67 70 69 69 69 67 64 66 69 68 64 64 70 79 82 82 86 95 99 94 86 81 76 67 62 56 50 46 42 38 36 37 38 49 59 61 60 56 52 52 53 54 61 69 70 68 67 64 59 52 48 47 45 42 44 52 55 48 33 20 14 9 2 360 358 354 347 331 299 276 266 264 261 249 235 248 258
46 40 38 42 50 60 66 70 73 75 76 76 76 74 73 73 73 72 69 65 66 72 78 76 76 82 89 82 73 71 70 65 61 58 56 53 51 51 51 51 53 59 61 59 57 55 55 60 64 67 69 69 65 60 57 56 53 49 48 50 50 49 53 59 57 45 33 22 14 8 3 1 2 1 351 324 269 238 234 243 245 231 230 240 236
55 47 42 42 46 48 56 74 81 81 84 88 88 86 86 84 83 82 80 77 76 76 76 71 67 69 80 80 73 71 71 69 67 68 69 67 64 63 63 61 65 68 67 65 66 67 68 69 68 66 64 61 58 54 51 50 50 48 47 49 48 47 49 51 47 39 30 21 14 9 6 6 9 10 4 354 324 212 226 229 226 221 210 180 149
64 50 45 46 45 38 36 52 95 100 95 96 99 100 98 94 91 89 87 85 83 80 80 78 72 70 75 78 76 74 74 75 77 78 77 74 71 69 66 65 68 71 71 73 73 70 68 66 63 61 60 58 54 51 50 50 51 50 48 49 49 48 44 36 27 19 17 17 16 15 16 19 22 25 29 40 58 78 96 120 150 153 135 126 121
68 48 41 42 44 37 34 41 67 111 117 108 103 103 105 104 100 94 90 89 87 84 83 83 79 75 74 74 76 79 80 80 80 78 77 78 76 71 68 67 68 67 69 73 72 65 62 61 58 54 54 52 49 47 48 51 53 51 46 45 46 44 39 31 21 14 15 20 25 31 35 37 38 43 53 59 63 72 79 79 79 86 93 97 93
56 46 43 43 44 40 34 36 42 56 97 123 120 113 112 114 113 108 99 93 91 89 86 83 81 78 76 75 79 82 82 80 79 78 80 84 82 78 75 75 71 66 65 67 65 60 57 56 53 49 47 47 45 44 46 50 54 52 47 44 41 36 34 34 27 22 25 34 44 50 52 52 52 58 64 64 64 68 68 63 60 57 50 49 49
49 43 45 44 41 37 29 24 25 33 48 73 115 140 138 134 129 122 114 107 102 97 93 89 85 81 79 79 82 83 81 80 80 82 85 85 87 90 89 80 72 68 66 62 58 55 52 51 50 46 45 44 44 46 49 51 49 45 39 30 22 21 30 41 40 38 47 58 64 66 69 70 70 71 72 71 70 68 61 56 53 47 38 32 28
56 47 44 35 33 35 26 16 14 23 32 39 41 41 131 153 147 136 124 117 113 108 102 98 93 88 84 82 82 81 79 77 76 77 78 79 83 96 90 74 66 65 62 58 54 53 54 54 52 46 43 44 45 48 50 47 40 33 23 11 10 22 47 63 61 62 69 75 75 75 74 71 70 72 73 71 65 55 47 41 38 34 24 13 9
69 50 37 26 40 51 20 9 17 24 22 28 30 30 59 119 140 147 138 123 115 113 109 104 99 95 89 84 81 79 77 76 75 72 70 68 69 79 78 70 65 63 59 55 54 55 56 57 56 52 51 53 52 47 42 36 31 26 19 18 31 56 75 82 83 83 83 84 83 79 74 72 71 69 65 58 49 43 37 31 29 26 16 11 16
70 37 23 17 53 56 21 12 31 30 24 32 44 46 63 93 109 135 150 139 118 105 101 99 100 99 89 83 84 82 77 76 76 72 66 61 61 69 75 73 69 69 66 60 60 62 59 54 53 57 62 66 65 58 45 37 37 43 49 58 69 80 87 92 93 93 94 91 85 80 79 77 71 63 58 54 49 41 28 14 10 12 13 22 39
44 33 26 23 53 55 36 30 31 25 25 44 57 53 62 77 81 97 126 134 117 100 96 96 95 89 84 91 99 91 76 70 72 71 67 60 57 62 70 73 74 77 77 72 69 68 63 57 62 69 71 71 71 67 60 56 58 63 70 80 84 85 87 90 90 88 86 79 71 71 72 68 63 61 57 50 41 28 15 5 1 4 14 28 43
356 34 46 49 63 47 27 31 37 36 42 57 54 46 52 67 83 97 111 118 108 99 100 99 88 82 91 106 109 92 70 68 72 75 73 69 66 66 66 69 79 87 88 82 74 66 63 69 79 82 79 77 75 72 68 68 68 68 72 81 82 77 74 76 78 77 76 72 70 67 62 62 69 59 38 26 17 8 8 15 21 25 31 33 25
339 21 69 67 67 63 41 44 51 56 63 65 55 45 45 55 85 107 113 113 107 100 100 97 87 82 93 101 90 70 75 82 83 83 80 79 84 81 67 66 79 89 87 83 74 63 66 83 91 88 86 85 82 78 75 76 80 80 80 80 77 73 72 73 73 72 71 68 62 53 48 53 54 33 16 13 18 24 31 58 77 57 47 48 48
337 323 91 69 76 100 98 54 63 85 88 80 68 54 48 49 77 107 111 110 106 97 90 89 88 88 95 89 68 68 86 93 91 89 87 87 90 85 70 66 76 83 82 82 75 65 76 102 109 99 94 96 93 86 80 82 88 90 87 85 81 77 76 73 67 61 59 53 44 41 42 42 36 28 26 35 51 56 61 76 84 69 60 61 64
337 314 299 297 276 230 233 206 130 118 115 118 120 86 59 53 72 101 107 107 104 96 90 92 99 106 112 106 89 87 95 101 101 98 94 89 88 86 77 72 78 82 83 82 77 75 93 116 125 118 108 104 101 96 89 89 93 97 96 94 90 84 80 74 64 55 50 45 42 42 42 38 33 37 46 54 57 57 60 66 69 65 57 51 51
317 317 316 310 296 249 190 173 161 148 137 139 149 142 90 63 66 95 111 111 108 110 114 116 120 127 133 129 113 104 105 109 105 100 94 85 82 86 88 88 97 107 104 94 90 98 105 109 115 120 118 111 107 107 103 99 100 102 100 97 93 88 85 79 66 51 41 35 31 25 25 30 37 45 50 49 46 46 48 51 57 57 48 40 39
281 291 311 319 313 166 151 149 146 142 135 138 167 197 182 131 94 108 123 115 98 97 115 127 133 141 144 139 126 117 117 116 110 102 98 92 88 87 89 94 108 125 127 116 107 111 113 112 110 111 114 113 112 112 109 107 105 101 95 91 90 90 84 69 54 45 38 34 30 23 23 31 41 49 52 48 42 37 32 29 36 45 40 34 35
270 269 293 319 327 151 151 144 130 128 127 134 165 180 161 117 117 126 129 127 111 95 121 154 176 164 156 152 144 136 132 130 123 115 109 105 102 97 89 90 102 114 118 116 113 113 117 118 115 108 104 104 105 106 106 106 99 87 79 84 89 82 68 55 48 46 44 44 46 47 46 45 44 42 41 38 31 25 21 20 23 30 30 32 39
274 263 279 313 325 160 158 155 143 139 136 142 158 157 39 22 168 155 134 127 127 130 160 203 214 192 168 159 154 150 150 147 141 136 128 120 119 116 102 90 96 105 111 112 109 108 113 119 119 116 112 111 112 113 108 101 93 80 76 90 94 77 61 53 49 45 46 51 54 51 49 52 52 42 31 24 20 18 21 25 30 33 32 31 27
267 259 272 306 316 206 167 162 154 149 148 154 167 169 121 111 166 170 159 150 159 185 209 222 223 200 175 163 158 160 165 163 158 155 146 133 132 135 131 110 95 96 106 116 116 116 119 124 127 130 130 126 122 109 89 82 82 78 83 106 113 84 62 55 47 40 42 49 50 41 35 39 44 39 30 26 26 27 26 26 27 30 31 27 17
255 257 271 301 313 273 181 172 166 159 159 165 174 178 173 162 165 177 184 190 198 206 219 235 238 207 169 157 161 170 173 170 167 158 142 133 137 143 143 128 104 94 100 111 116 121 127 131 132 132 132 131 123 88 62 60 70 75 78 99 113 72 63 60 53 46 43 40 37 31 25 21 21 21 18 14 15 19 21 16 13 10 6 10 16
250 261 266 278 296 300 232 186 178 172 170 175 180 184 186 183 181 186 191 193 198 210 231 246 228 191 172 173 183 181 174 172 170 160 141 129 132 140 143 137 119 104 102 102 100 100 104 107 103 102 103 105 104 90 79 80 84 82 80 84 76 62 61 55 36 21 18 17 12 7 1 354 350 356 2 360 356 357 357 357 359 355 344 351 12
259 273 269 260 276 304 305 234 199 192 189 186 182 182 184 184 186 194 199 196 199 216 239 250 218 193 193 203 207 191 178 175 170 161 152 141 129 136 148 152 147 133 119 108 101 94 85 79 82 89 93 94 96 94 89 88 88 85 85 86 79 63 48 24 355 335 326 337 344 343 338 331 323 324 336 346 350 350 351 354 358 353 341 346 7
260 257 251 245 256 301 327 311 224 200 197 195 188 184 187 188 192 200 203 202 205 217 227 237 249 230 192 185 188 185 179 175 170 164 162 159 145 140 150 155 153 146 139 133 130 126 98 75 81 95 100 99 98 98 92 86 81 75 70 68 61 39 14 357 342 328 320 324 334 344 347 342 332 326 334 349 359 355 352 356 2 7 13 21 30
Height
784 783 782 783 787 790 791 794 797 799 801 803 803 804 805 806 806 807 808 810 811 813 815 817 818 820 822 824 825 827 828 829 830 830 831 831 832 833 834 835 836 837 838 839 840 841 841 842 843 844 844 845 846 847 848 849 851 852 853 852 852 853 855 856 858 861 863 863 863 865 867 868 870 872 874 875 876 877 878 879 880 880 880 881 881
782 780 780 783 787 790 791 793 797 800 802 803 803 804 805 805 806 807 808 810 811 813 815 817 819 821 822 824 826 827 828 829 830 830 831 832 832 833 834 835 836 836 837 838 839 840 841 842 843 844 845 846 846 847 848 849 851 852 852 851 851 853 854 855 857 859 862 864 864 866 867 868 869 871 873 874 875 876 877 878 879 880 880 880 881
782 782 782 784 787 789 790 793 796 799 801 803 804 805 805 805 806 807 808 810 812 813 815 817 819 821 823 824 826 827 828 828 829 830 831 832 833 833 834 835 836 836 837 838 839 840 841 842 843 844 845 846 847 848 849 850 850 851 851 851 851 853 855 856 857 859 861 864 865 866 867 868 869 870 871 872 874 874 875 877 878 878 879 879 879
782 782 783 785 787 787 788 791 795 798 800 802 803 805 805 805 806 807 808 810 812 813 815 817 819 821 822 824 825 826 827 828 829 830 831 833 833 833 834 835 836 836 837 837 838 839 840 841 843 844 845 846 847 848 849 849 850 850 851 851 852 853 855 856 856 858 860 863 864 865 866 866 867 868 870 871 872 873 873 874 875 876 876 877 877
783 782 782 784 786 785 786 789 793 796 798 801 802 803 804 804 805 806 808 809 811 813 815 817 819 820 822 824 825 826 827 829 829 830 832 833 834 834 835 835 836 836 837 837 838 839 840 841 843 844 845 846 846 847 848 849 849 850 850 851 852 853 855 856 857 858 860 861 863 864 865 865 866 867 868 869 871 871 872 872 872 873 873 874 874
782 781 780 780 782 784 784 786 790 794 796 798 800 802 803 804 804 806 807 809 811 813 814 816 818 820 822 823 825 826 827 829 830 831 832 833 834 835 835 836 836 836 837 837 838 839 840 842 843 844 845 846 847 847 848 849 849 850 850 851 852 853 854 856 857 858 859 860 861 863 864 864 865 866 866 867 868 869 869 870 870 870 871 871 871
779 779 778 778 780 782 781 782 786 792 795 797 798 801 802 803 804 806 808 809 811 812 814 816 818 820 821 822 824 826 827 828 830 831 832 833 834 835 835 836 836 836 837 837 838 839 841 842 843 845 846 846 847 847 848 849 850 850 851 851 852 853 854 855 856 857 858 859 860 861 862 863 864 864 864 865 866 866 867 867 867 868 868 868 867
778 778 777 777 779 780 780 781 784 791 795 796 797 800 802 803 804 806 808 810 811 812 814 816 817 818 820 821 823 825 827 828 830 831 833 834 835 835 836 836 836 836 837 838 839 840 841 843 844 845 846 846 847 847 848 849 850 851 852 852 852 853 854 855 856 857 858 859 859 860 861 862 863 863 863 864 865 865 865 865 865 865 865 864 864
777 777 777 778 779 779 780 782 785 792 795 794 796 799 801 803 804 806 808 810 811 813 814 815 816 817 819 821 823 825 827 829 830 831 833 834 835 836 836 837 837 837 838 838 839 840 841 843 844 845 846 846 847 848 848 850 850 851 852 853 853 853 854 855 856 857 857 858 859 859 860 861 861 862 862 863 863 863 863 864 863 862 862 862 862
776 777 777 779 780 781 781 783 787 793 795 793 795 798 801 803 805 806 808 810 811 813 813 814 816 817 819 821 823 825 827 829 830 832 833 834 835 836 836 837 837 838 838 838 840 841 842 844 845 846 847 847 847 848 849 850 851 852 852 853 853 853 854 855 856 856 857 858 858 859 859 860 860 860 860 861 861 861 862 862 861 861 861 861 860
776 776 777 778 780 782 782 783 786 792 794 793 795 798 800 802 805 807 808 809 811 812 812 814 816 817 819 821 823 825 827 829 831 832 833 834 835 836 836 837 837 838 839 839 840 842 843 844 845 847 847 848 848 849 850 851 851 852 852 853 853 854 854 855 856 856 857 857 858 858 859 859 859 859 859 859 859 859 859 859 859 859 859 859 858
776 777 777 778 779 781 783 785 787 791 793 795 796 797 799 801 804 806 807 808 810 811 812 815 816 818 820 821 823 825 827 830 832 833 834 835 836 836 836 837 837 838 839 839 840 841 842 844 845 847 847 848 849 849 850 851 852 852 853 853 853 854 854 855 855 856 856 857 857 857 858 858 858 858 859 858 858 857 857 856 856 856 856 856 856
778 778 778 779 780 782 784 786 788 790 793 797 798 797 798 800 803 805 807 808 810 811 813 815 817 819 820 821 824 826 828 831 832 833 834 835 836 836 836 837 837 838 839 839 840 841 842 844 845 846 848 848 849 850 851 851 852 853 853 853 854 854 854 855 855 855 856 856 856 856 857 857 857 857 857 857 857 856 855 855 854 854 854 854 853
783 781 781 781 782 783 785 786 788 790 794 798 799 797 798 800 803 806 807 808 810 812 814 816 817 819 820 822 824 826 828 831 832 833 834 835 836 836 836 837 838 839 840 840 841 842 843 844 845 846 849 850 850 850 851 852 853 853 853 854 854 854 854 854 855 855 855 855 855 855 855 855 855 855 855 855 854 854 853 852 852 852 851 851 851
788 786 785 785 785 785 787 788 790 793 796 798 798 798 800 802 804 806 808 809 811 813 815 816 818 820 821 823 824 826 828 831 832 834 835 835 836 836 836 837 838 839 840 841 842 843 844 846 847 847 849 851 851 851 852 853 853 853 853 853 854 854 854 854 854 854 854 854 854 853 853 853 853 853 853 853 852 851 850 849 849 849 848 848 848
793 791 790 790 789 789 790 791 792 795 798 798 797 798 801 803 806 808 808 810 812 813 816 818 819 820 822 823 825 826 829 831 832 833 834 835 836 836 836 837 838 840 841 841 842 843 844 846 847 847 848 851 852 852 852 853 853 853 853 852 853 853 853 853 852 852 852 852 852 851 851 851 851 850 850 850 849 848 846 846 847 847 846 845 845
798 797 796 797 795 794 793 794 795 797 799 799 798 800 802 805 808 809 808 810 813 815 817 819 820 821 822 824 826 827 829 830 832 833 834 835 835 836 836 837 838 840 842 842 841 842 844 845 846 846 847 849 852 852 852 852 852 852 852 852 852 852 851 851 851 851 851 850 850 850 850 849 849 848 848 848 847 845 844 846 847 847 845 844 843
805 803 802 802 801 799 797 797 798 799 800 801 801 802 804 806 808 809 809 810 813 816 818 820 821 823 824 825 827 828 829 830 831 833 834 835 835 836 836 837 839 841 843 842 842 842 843 845 845 845 845 847 850 851 852 852 852 852 851 851 851 851 850 850 849 849 849 849 849 848 848 847 847 846 846 846 845 844 843 843 844 844 843 842 841
811 809 808 806 805 803 802 801 802 802 803 804 804 804 806 807 809 809 810 812 815 818 820 821 823 824 825 827 828 829 830 831 832 833 834 835 836 837 837 838 839 841 842 842 842 842 843 844 844 845 845 846 848 850 851 851 851 851 851 851 850 850 849 849 848 848 847 847 846 846 845 845 844 844 843 843 843 842 841 841 841 841 840 839 839
816 815 813 810 809 808 806 805 806 806 805 806 807 808 808 809 811 811 813 815 818 820 822 824 825 826 828 829 830 831 832 832 833 834 835 835 836 837 838 839 840 841 841 841 842 843 843 844 844 845 845 846 848 849 850 850 850 850 850 850 850 849 848 848 847 846 845 845 844 843 842 842 842 841 841 841 841 840 840 839 839 839 838 837 837
819 818 816 814 813 812 810 809 810 809 809 809 811 811 811 812 814 815 816 819 820 822 824 826 826 828 830 831 831 832 833 833 834 835 835 836 837 837 839 839 840 841 841 842 842 843 844 844 844 844 844 845 847 848 849 849 849 849 849 849 848 847 846 846 845 844 844 843 842 841 840 840 840 839 839 839 838 838 838 837 838 837 837 836 836
822 821 819 818 817 816 816 815 814 814 814 813 814 815 815 816 818 819 820 822 823 824 827 828 829 830 831 832 832 833 834 835 835 836 837 837 837 838 839 840 841 841 841 841 842 843 843 844 843 842 843 845 847 847 848 848 847 847 846 846 846 845 845 844 844 843 843 842 841 840 839 839 838 837 837 836 836 836 835 835 835 835 835 835 834
826 824 823 822 822 821 821 820 819 819 818 818 818 819 820 821 823 824 825 825 826 827 829 830 830 831 832 834 834 835 836 837 837 838 839 839 839 839 839 840 841 840 840 840 841 842 842 842 842 842 844 845 846 846 846 846 846 845 845 844 844 844 843 843 843 843 842 842 841 840 839 839 838 837 837 836 835 834 834 833 834 834 833 833 833
828 827 826 826 825 824 824 823 822 822 822 822 823 823 825 825 826 826 827 828 829 829 830 831 831 832 833 835 836 837 838 838 839 839 840 840 840 840 839 839 839 839 839 840 841 841 842 842 842 843 844 844 845 845 845 845 845 844 844 843 843 842 842 842 842 841 841 840 840 840 839 839 838 838 837 837 836 835 834 834 834 833 833 833 833
830 829 828 828 827 827 826 825 825 824 825 825 826 826 827 827 826 827 828 829 830 831 831 832 833 834 835 836 837 838 838 839 840 840 840 841 840 840 839 839 839 839 839 840 841 841 841 842 842 842 843 844 844 845 845 845 844 844 843 842 842 841 841 840 840 840 840 840 840 840 840 839 839 838 837 837 836 836 835 835 834 834 834 834 834
831 831 830 830 829 828 828 827 827 827 827 827 827 828 828 828 828 828 829 830 831 832 832 833 834 835 837 838 838 839 839 840 840 841 841 841 841 840 840 840 840 840 840 841 841 841 842 842 842 842 843 843 843 844 844 844 843 843 842 841 841 840 840 839 840 840 840 840 840 840 840 839 838 838 837 837 836 836 836 835 835 835 835 834 834
834 834 833 833 832 831 831 830 829 830 830 830 829 830 830 830 830 831 831 832 833 833 834 834 835 837 838 839 840 840 840 841 841 841 841 841 841 841 841 841 841 841 841 842 842 842 842 842 842 843 843 843 843 843 843 843 843 842 842 841 841 840 839 839 840 840 841 841 841 840 840 839 838 838 837 836 836 836 836 835 835 835 835 835 835
837 836 836 835 835 835 835 834 834 833 833 832 832 832 832 833 833 833 834 835 835 835 836 837 838 839 840 840 841 841 841 842 842 842 842 842 842 842 842 841 842 842 842 843 843 843 843 842 842 843 843 843 843 843 843 843 843 843 843 842 842 842 841 841 841 842 842 842 841 841 840 839 839 838 837 836 835 835 835 835 835 834 834 834 835
841 840 839 838 838 838 838 838 838 837 836 835 835 835 836 836 836 836 836 837 837 838 838 838 840 840 840 841 841 841 842 843 843 843 843 843 843 843 843 842 843 843 843 843 843 843 843 843 843 843 843 844 844 844 844 844 844 844 844 843 843 843 843 843 843 843 843 842 842 841 840 839 839 838 837 836 835 835 835 835 835 834 834 834 834
844 843 842 841 841 841 841 841 840 840 839 839 839 839 839 839 839 839 839 840 840 840 840 840 841 841 841 841 842 842 843 844 844 845 845 844 844 844 844 844 844 844 844 844 844 844 844 844 845 845 845 845 845 845 846 845 845 845 845 844 844 844 844 844 844 844 844 843 842 841 840 840 839 838 837 837 836 836 835 835 835 835 834 834 834
846 846 845 845 844 843 843 843 843 842 842 841 841 841 841 842 842 842 842 842 842 842 842 842 843 843 843 843 843 844 844 845 845 846 846 846 846 846 846 846 846 846 846 845 845 845 846 846 847 847 847 847 847 847 847 846 846 846 846 845 845 845 845 845 845 844 844 843 842 841 841 840 839 839 838 838 838 837 837 836 836 836 835 835 835
847 847 847 846 846 845 845 844 844 844 844 843 843 843 843 844 844 845 845 844 844 844 844 844 844 844 844 844 845 845 846 846 847 847 847 847 847 847 847 847 847 847 847 846 846 847 847 847 847 848 848 847 848 848 848 847 847 846 846 846 846 846 846 845 845 845 844 843 842 842 841 841 841 840 840 840 839 839 838 838 837 837 837 836 836
848 848 847 847 847 846 846 845 846 846 846 845 845 844 844 845 845 846 846 846 846 846 846 846 846 846 846 846 846 847 847 848 848 848 848 848 848 848 848 848 848 848 848 847 847 848 848 848 848 848 848 848 848 848 848 847 847 847 846 847 847 847 846 846 846 845 844 843 843 843 842 842 842 841 841 841 840 840 839 839 839 838 838 838 838
849 849 848 848 848 847 847 847 847 847 847 847 847 846 846 846 846 847 847 847 848 848 848 848 848 848 848 849 849 849 850 850 850 850 850 849 849 849 849 848 849 849 848 848 848 849 849 849 849 849 849 849 849 849 848 848 848 847 847 847 847 847 847 846 846 845 845 844 844 844 844 843 843 842 842 841 841 841 841 840 840 840 839 839 839
850 850 850 849 849 849 848 848 848 848 848 847 847 848 847 847 848 848 848 848 848 849 849 850 850 851 851 851 851 851 851 851 851 851 851 850 850 850 849 849 849 849 849 849 850 850 850 850 850 851 851 851 850 850 850 849 849 848 848 848 847 847 847 847 846 846 846 845 845 845 845 845 844 843 843 843 843 842 842 841 841 840 840 840 839
851 850 850 850 849 849 849 849 849 849 848 848 847 847 847 847 848 848 849 849 849 849 850 851 852 852 852 852 852 852 852 852 852 852 852 851 851 850 850 850 850 851 851 851 852 852 852 852 852 852 852 852 851 851 851 850 850 850 849 849 849 848 848 848 847 847 847 846 846 846 846 845 845 845 844 844 844 843 843 843 842 841 841 840 840
851 851 850 849 849 849 849 850 850 849 849 849 849 849 848 848 848 848 849 850 851 851 851 852 853 853 854 854 854 854 853 853 853 853 853 852 852 851 851 852 852 853 853 854 854 854 854 854 854 854 853 853 852 852 852 852 851 851 851 850 850 850 849 849 849 848 848 848 847 847 847 846 846 846 845 845 845 844 844 843 843 842 842 841 841
852 851 850 849 849 849 850 850 850 850 850 850 850 850 850 850 849 849 850 852 853 853 853 854 854 854 854 854 855 855 854 854 854 854 854 854 854 853 854 854 854 855 855 856 856 856 855 855 855 855 854 854 854 853 853 853 852 852 852 852 852 852 851 851 851 850 850 849 849 849 848 848 847 847 846 846 845 845 845 844 843 843 842 842 841
853 852 851 850 850 850 850 851 851 851 851 851 851 851 851 851 851 850 851 853 854 855 855 855 855 855 855 855 855 855 855 855 856 856 856 856 856 856 856 856 856 856 857 857 857 856 856 856 856 856 855 855 855 855 855 854 854 854 854 854 854 853 853 853 852 852 851 851 850 850 850 849 849 848 848 847 846 845 845 845 844 844 843 843 842
853 853 852 852 851 851 851 852 852 853 853 853 853 853 853 853 852 852 852 853 854 855 855 856 856 856 856 856 856 856 856 857 858 858 858 858 858 858 857 857 857 857 858 857 857 857 857 857 857 856 856 856 856 856 856 856 856 856 855 855 855 855 854 854 854 853 853 852 852 851 851 850 850 849 848 847 846 845 845 845 845 844 844 843 843
854 853 853 852 852 852 852 853 853 854 854 854 855 854 854 854 854 854 854 854 854 855 855 856 856 857 857 857 857 857 857 858 859 859 859 859 859 859 858 858 858 858 858 858 858 858 857 857 858 858 858 858 858 857 857 857 857 857 857 857 856 856 856 855 855 854 854 854 853 853 852 851 851 850 848 847 847 846 845 845 845 845 845 844 843
854 854 853 853 852 852 853 854 854 854 854 855 855 855 856 856 856 855 855 855 855 855 856 857 858 857 858 858 858 858 859 859 860 860 860 860 860 860 860 860 859 859 859 859 859 859 858 859 859 859 859 859 859 858 858 858 858 858 858 857 857 857 857 856 856 855 855 855 854 854 853 852 851 850 849 848 848 847 847 846 846 846 845 845 844
853 853 853 853 852 852 852 853 854 854 854 855 855 855 856 856 856 856 856 856 856 856 857 858 858 858 858 858 859 859 859 860 860 861 861 861 861 861 861 861 861 861 861 860 860 860 860 859 859 860 859 859 859 859 859 859 859 858 858 858 858 857 857 857 856 856 855 855 855 854 853 853 852 851 850 850 849 848 848 847 847 846 846 845 845
853 853 853 853 852 852 852 853 853 854 854 855 855 855 855 855 856 856 856 856 857 857 857 858 858 859 859 859 859 859 860 860 861 861 861 862 862 862 862 862 862 862 862 861 861 861 860 860 860 860 860 860 860 860 860 860 859 859 859 859 858 858 857 857 857 856 856 856 855 854 854 853 852 852 851 850 850 849 848 848 847 847 846 845 845
853 853 853 853 852 852 852 853 853 854 854 854 854 855 855 855 855 856 856 856 857 857 858 858 858 859 859 859 860 860 861 861 861 862 862 862 863 863 863 863 863 862 862 862 862 861 861 861 861 861 861 861 861 860 860 860 860 860 859 859 859 858 858 858 858 857 857 856 855 855 854 853 853 852 851 851 850 850 849 848 848 847 846 846 845
853 853 852 852 853 852 852 852 853 853 853 854 854 854 854 855 855 856 856 856 857 858 858 858 858 858 859 859 860 860 861 861 861 862 862 863 863 863 863 863 863 863 862 862 862 862 861 861 861 861 861 861 860 860 860 860 860 860 860 860 859 859 859 859 859 858 857 857 856 855 855 854 853 853 852 851 850 850 849 849 848 848 847 847 846
852 852 852 852 852 852 852 852 852 853 853 853 854 854 855 855 855 856 856 856 857 858 858 858 858 858 859 859 860 860 860 861 861 862 862 863 863 863 864 864 863 863 863 862 862 862 862 861 861 861 861 861 860 860 860 861 860 860 860 860 860 860 859 859 859 858 858 857 856 856 855 854 854 853 852 852 851 851 850 849 849 848 848 847 846
852 852 852 852 852 852 852 851 852 852 853 853 853 854 854 855 855 856 856 856 856 857 857 858 858 858 859 859 859 860 860 860 861 862 862 863 863 863 863 863 863 863 863 862 862 862 862 861 861 861 861 861 861 861 861 861 860 860 860 860 860 860 859 859 859 858 858 857 857 856 856 855 854 853 853 852 851 851 850 850 849 848 848 847 847
852 852 852 852 852 852 852 851 851 851 852 852 852 853 853 854 855 856 856 856 856 856 856 857 857 858 858 858 859 859 859 860 861 862 862 862 862 863 863 863 863 863 863 862 862 862 862 861 861 861 861 861 861 861 861 861 860 860 860 860 860 860 860 859 859 859 858 858 857 856 856 855 854 853 853 852 851 851 850 850 849 848 848 847 847
851 851 852 852 851 851 852 851 850 850 851 851 852 851 852 853 854 854 855 855 856 855 856 856 857 857 857 857 858 858 859 859 860 861 861 861 861 862 862 862 863 863 862 862 862 862 861 861 861 861 861 861 861 861 861 861 861 861 861 860 860 860 860 860 859 859 858 858 857 856 856 855 854 853 852 852 851 851 850 849 849 848 847 847 847
850 850 851 851 850 850 850 850 849 849 850 850 850 850 851 851 852 852 853 853 854 855 855 856 856 856 856 856 857 858 858 859 859 860 860 860 861 861 861 862 862 862 862 862 862 861 861 861 861 861 862 862 862 862 862 861 861 861 861 861 861 860 860 860 859 859 858 858 857 856 855 854 853 852 852 851 851 850 850 849 849 848 847 847 847